| time (UTC) | temp C | wind direction | speed KPH | gust KPH | rain 1hr cm | rain 24hr cm | rain mn cm | humidity % | barometer mb |
| 20260507052719 | 11 | 0 | 0.0 | 6.4 | 0.00 | 0.05 | 0.00 | 55 | 1013.6 |
| 20260507052001 | 11 | 0 | 1.6 | 6.4 | 0.00 | 0.15 | 0.00 | 55 | 1013.5 |
| 20260507051718 | 11 | 0 | 3.2 | 6.4 | 0.00 | 0.25 | 0.00 | 56 | 1013.5 |
| 20260507051001 | 11 | 0 | 3.2 | 4.8 | 0.00 | 0.38 | 0.00 | 56 | 1013.4 |
| 20260507050501 | 11 | 69 | 3.2 | 4.8 | 0.00 | 0.46 | 0.00 | 57 | 1013.4 |
| 20260507045959 | 11 | 80 | 0.0 | 0.0 | 0.00 | 0.48 | 0.00 | 57 | 1013.3 |
| 20260507045500 | 11 | 80 | 0.0 | 0.0 | 0.00 | 0.48 | 0.00 | 57 | 1013.3 |
| 20260507045232 | 11 | 80 | 0.0 | 0.0 | 0.00 | 0.51 | 0.00 | 57 | 1013.2 |
| 20260507044500 | 11 | 83 | 0.0 | 0.0 | 0.00 | 0.51 | 0.00 | 57 | 1013.2 |
| 20260507044000 | 11 | 80 | 0.0 | 0.0 | 0.00 | 0.51 | 0.00 | 57 | 1013.2 |
| 20260507043727 | 11 | 78 | 0.0 | 3.2 | 0.00 | 0.51 | 0.00 | 57 | 1013.1 |
| 20260507043219 | 10 | 62 | 1.6 | 3.2 | 0.00 | 0.53 | 0.00 | 57 | 1013.0 |
| 20260507042500 | 11 | 62 | 0.0 | 3.2 | 0.00 | 0.56 | 0.00 | 57 | 1013.0 |
| 20260507041959 | 11 | 66 | 0.0 | 0.0 | 0.00 | 0.58 | 0.00 | 57 | 1012.9 |
| 20260507041459 | 11 | 330 | 0.0 | 0.0 | 0.00 | 0.58 | 0.00 | 57 | 1012.8 |
| 20260507040959 | 11 | 331 | 0.0 | 0.0 | 0.00 | 0.61 | 0.00 | 57 | 1012.9 |
| 20260507040459 | 11 | 331 | 0.0 | 0.0 | 0.00 | 0.61 | 0.00 | 57 | 1012.9 |
| 20260507040000 | 11 | 331 | 0.0 | 1.6 | 0.00 | 0.61 | 0.00 | 57 | 1012.8 |
| 20260507035459 | 11 | 331 | 0.0 | 1.6 | 0.00 | 0.61 | 0.00 | 57 | 1012.8 |
| 20260507034959 | 11 | 331 | 0.0 | 3.2 | 0.00 | 0.64 | 0.00 | 57 | 1012.7 |
| 20260507034719 | 11 | 331 | 1.6 | 3.2 | 0.00 | 0.64 | 0.00 | 57 | 1012.6 |
| 20260507033959 | 11 | 0 | 0.0 | 4.8 | 0.00 | 0.66 | 0.00 | 57 | 1012.6 |
| 20260507033458 | 11 | 331 | 0.0 | 4.8 | 0.00 | 0.69 | 0.00 | 57 | 1012.7 |
| 20260507032957 | 11 | 0 | 1.6 | 4.8 | 0.00 | 0.69 | 0.00 | 57 | 1012.5 |
| 20260507032457 | 11 | 0 | 1.6 | 4.8 | 0.00 | 0.71 | 0.00 | 57 | 1012.5 |
| 20260507032220 | 11 | 0 | 3.2 | 4.8 | 0.00 | 0.71 | 0.00 | 57 | 1012.5 |
| 20260507031457 | 11 | 0 | 1.6 | 6.4 | 0.00 | 0.71 | 0.00 | 57 | 1012.6 |
| 20260507030956 | 11 | 0 | 1.6 | 6.4 | 0.00 | 0.71 | 0.00 | 57 | 1012.5 |
| 20260507030457 | 11 | 0 | 3.2 | 8.0 | 0.00 | 0.71 | 0.00 | 57 | 1012.5 |
| 20260507025956 | 11 | 0 | 3.2 | 9.7 | 0.00 | 0.71 | 0.00 | 57 | 1012.5 |
| 20260507025457 | 11 | 0 | 4.8 | 9.7 | 0.00 | 0.71 | 0.00 | 57 | 1012.4 |
| 20260507024955 | 11 | 0 | 6.4 | 8.0 | 0.00 | 0.71 | 0.00 | 57 | 1012.4 |
| 20260507024456 | 11 | 0 | 4.8 | 8.0 | 0.00 | 0.71 | 0.00 | 57 | 1012.5 |
| 20260507023956 | 11 | 0 | 3.2 | 11.3 | 0.00 | 0.71 | 0.00 | 57 | 1012.5 |
| 20260507023456 | 12 | 0 | 6.4 | 14.5 | 0.00 | 0.71 | 0.00 | 56 | 1012.4 |
| 20260507022955 | 12 | 0 | 11.3 | 14.5 | 0.00 | 0.71 | 0.00 | 56 | 1012.5 |
| 20260507022456 | 12 | 0 | 8.0 | 9.7 | 0.00 | 0.71 | 0.00 | 56 | 1012.4 |
| 20260507021955 | 12 | 0 | 4.8 | 16.1 | 0.00 | 0.71 | 0.00 | 56 | 1012.5 |
| 20260507021455 | 12 | 0 | 8.0 | 16.1 | 0.00 | 0.71 | 0.00 | 56 | 1012.5 |
| 20260507020955 | 12 | 0 | 9.7 | 14.5 | 0.00 | 0.71 | 0.00 | 56 | 1012.5 |
| 20260507020456 | 12 | 0 | 8.0 | 14.5 | 0.00 | 0.71 | 0.00 | 56 | 1012.5 |
| 20260507015955 | 12 | 0 | 9.7 | 14.5 | 0.00 | 0.71 | 0.00 | 56 | 1012.5 |
| 20260507015719 | 12 | 0 | 6.4 | 9.7 | 0.00 | 0.71 | 0.00 | 56 | 1012.5 |
| 20260507015223 | 12 | 0 | 6.4 | 9.7 | 0.00 | 0.71 | 0.00 | 56 | 1012.5 |
| 20260507014455 | 12 | 0 | 4.8 | 8.0 | 0.00 | 0.71 | 0.00 | 56 | 1012.4 |
| 20260507014219 | 12 | 0 | 4.8 | 8.0 | 0.00 | 0.71 | 0.00 | 56 | 1012.4 |
| 20260507013455 | 12 | 0 | 4.8 | 8.0 | 0.00 | 0.71 | 0.00 | 56 | 1012.4 |
| 20260507012955 | 11 | 0 | 4.8 | 8.0 | 0.00 | 0.71 | 0.00 | 56 | 1012.5 |
| 20260507012454 | 11 | 0 | 3.2 | 8.0 | 0.00 | 0.71 | 0.00 | 57 | 1012.6 |
| 20260507011954 | 11 | 0 | 1.6 | 6.4 | 0.00 | 0.71 | 0.00 | 57 | 1012.5 |
| 20260507011454 | 11 | 0 | 3.2 | 6.4 | 0.00 | 0.71 | 0.00 | 57 | 1012.5 |
| 20260507010953 | 11 | 0 | 3.2 | 3.2 | 0.00 | 0.71 | 0.00 | 57 | 1012.4 |
| 20260507010453 | 11 | 0 | 0.0 | 3.2 | 0.00 | 0.71 | 0.00 | 56 | 1012.3 |
| 20260507005954 | 12 | 0 | 0.0 | 0.0 | 0.00 | 0.71 | 0.00 | 56 | 1012.4 |
| 20260507005941 | 12 | 0 | 0.0 | 0.0 | 0.00 | 0.71 | 0.00 | 56 | 1012.4 |
| 20260507004953 | 12 | 0 | 0.0 | 3.2 | 0.00 | 0.71 | 0.00 | 56 | 1012.4 |
| 20260507004453 | 12 | 0 | 0.0 | 3.2 | 0.00 | 0.71 | 0.00 | 56 | 1012.4 |
| 20260507003953 | 12 | 0 | 1.6 | 3.2 | 0.00 | 0.71 | 0.00 | 56 | 1012.3 |
| 20260507003453 | 12 | 0 | 0.0 | 0.0 | 0.00 | 0.71 | 0.00 | 55 | 1012.2 |
| 20260507002954 | 12 | 0 | 0.0 | 1.6 | 0.00 | 0.74 | 0.00 | 55 | 1012.2 |
| 20260507002716 | 12 | 0 | 0.0 | 1.6 | 0.00 | 0.74 | 0.00 | 55 | 1012.1 |
| 20260507002211 | 12 | 0 | 0.0 | 0.0 | 0.00 | 0.74 | 0.00 | 55 | 1012.1 |
| 20260507001453 | 12 | 0 | 0.0 | 0.0 | 0.00 | 0.76 | 0.00 | 55 | 1012.0 |
| 20260507001211 | 12 | 0 | 0.0 | 0.0 | 0.00 | 0.76 | 0.00 | 54 | 1012.0 |
| 20260507000453 | 12 | 0 | 0.0 | 0.0 | 0.00 | 0.76 | 0.00 | 54 | 1012.0 |
| 20260506235952 | 13 | 0 | 0.0 | 0.0 | 0.00 | 0.76 | 0.00 | 54 | 1011.9 |
| 20260506235453 | 13 | 0 | 0.0 | 4.8 | 0.00 | 0.76 | 0.00 | 54 | 1011.9 |
| 20260506234952 | 13 | 0 | 0.0 | 4.8 | 0.00 | 0.76 | 0.00 | 54 | 1011.9 |
| 20260506234452 | 13 | 0 | 3.2 | 4.8 | 0.00 | 0.76 | 0.00 | 54 | 1011.9 |
| 20260506233952 | 13 | 0 | 1.6 | 3.2 | 0.00 | 0.76 | 0.00 | 53 | 1011.9 |
| 20260506233452 | 13 | 0 | 0.0 | 0.0 | 0.00 | 0.76 | 0.00 | 53 | 1011.9 |
| 20260506232952 | 13 | 0 | 0.0 | 0.0 | 0.00 | 0.76 | 0.00 | 53 | 1011.9 |
| 20260506232452 | 13 | 0 | 0.0 | 3.2 | 0.00 | 0.76 | 0.00 | 53 | 1011.8 |
| 20260506231952 | 13 | 0 | 0.0 | 4.8 | 0.00 | 0.76 | 0.00 | 53 | 1011.8 |
| 20260506231717 | 13 | 0 | 3.2 | 4.8 | 0.00 | 0.76 | 0.00 | 53 | 1011.8 |
| 20260506230951 | 13 | 0 | 1.6 | 4.8 | 0.00 | 0.76 | 0.00 | 53 | 1011.8 |
| 20260506230451 | 13 | 0 | 3.2 | 4.8 | 0.00 | 0.76 | 0.00 | 53 | 1011.8 |
| 20260506225951 | 13 | 0 | 1.6 | 11.3 | 0.00 | 0.76 | 0.00 | 53 | 1011.8 |
| 20260506225450 | 13 | 0 | 6.4 | 11.3 | 0.00 | 0.76 | 0.00 | 53 | 1011.8 |
| 20260506224951 | 13 | 0 | 1.6 | 6.4 | 0.00 | 0.76 | 0.00 | 53 | 1011.8 |
| 20260506224451 | 13 | 0 | 4.8 | 6.4 | 0.00 | 0.76 | 0.00 | 53 | 1011.8 |
| 20260506223951 | 13 | 0 | 1.6 | 8.0 | 0.00 | 0.76 | 0.00 | 53 | 1011.8 |
| 20260506223450 | 13 | 0 | 6.4 | 9.7 | 0.00 | 0.76 | 0.00 | 52 | 1011.6 |
| 20260506222951 | 13 | 0 | 8.0 | 9.7 | 0.00 | 0.76 | 0.00 | 52 | 1011.6 |
| 20260506222450 | 13 | 0 | 4.8 | 9.7 | 0.00 | 0.76 | 0.00 | 52 | 1011.5 |
| 20260506221950 | 13 | 0 | 6.4 | 11.3 | 0.00 | 0.76 | 0.00 | 52 | 1011.6 |
| 20260506221451 | 14 | 0 | 6.4 | 14.5 | 0.00 | 0.76 | 0.00 | 52 | 1011.6 |
| 20260506220950 | 13 | 0 | 8.0 | 14.5 | 0.00 | 0.76 | 0.00 | 52 | 1011.5 |
| 20260506220450 | 14 | 0 | 8.0 | 14.5 | 0.00 | 0.76 | 0.00 | 52 | 1011.5 |
| 20260506215950 | 14 | 0 | 8.0 | 14.5 | 0.00 | 0.76 | 0.76 | 52 | 1011.5 |
| 20260506215929 | 14 | 0 | 6.4 | 14.5 | 0.00 | 0.76 | 0.76 | 52 | 1011.3 |
| 20260506214950 | 14 | 0 | 9.7 | 14.5 | 0.00 | 0.76 | 0.76 | 52 | 1011.5 |
| 20260506214449 | 14 | 0 | 6.4 | 11.3 | 0.00 | 0.76 | 0.76 | 53 | 1011.3 |
| 20260506213949 | 14 | 0 | 6.4 | 16.1 | 0.00 | 0.76 | 0.76 | 53 | 1011.3 |
| 20260506213449 | 14 | 0 | 9.7 | 16.1 | 0.00 | 0.76 | 0.76 | 53 | 1011.3 |
| 20260506212949 | 14 | 0 | 8.0 | 14.5 | 0.00 | 0.76 | 0.76 | 53 | 1011.3 |
| 20260506212451 | 14 | 0 | 6.4 | 14.5 | 0.00 | 0.76 | 0.76 | 53 | 1011.3 |
| 20260506212211 | 14 | 0 | 6.4 | 11.3 | 0.00 | 0.76 | 0.76 | 53 | 1011.5 |
| 20260506211451 | 14 | 0 | 6.4 | 11.3 | 0.00 | 0.76 | 0.76 | 53 | 1011.3 |
| 20260506210950 | 14 | 0 | 4.8 | 9.7 | 0.00 | 0.76 | 0.76 | 53 | 1011.3 |
| 20260506210450 | 14 | 0 | 6.4 | 9.7 | 0.00 | 0.76 | 0.76 | 53 | 1011.3 |
| 20260506210209 | 14 | 0 | 4.8 | 11.3 | 0.00 | 0.76 | 0.76 | 53 | 1011.3 |
| 20260506205459 | 14 | 0 | 6.4 | 11.3 | 0.00 | 0.76 | 0.76 | 53 | 1011.2 |
| 20260506204950 | 14 | 0 | 8.0 | 16.1 | 0.00 | 0.76 | 0.76 | 53 | 1011.1 |
| 20260506204450 | 14 | 0 | 8.0 | 16.1 | 0.00 | 0.76 | 0.76 | 53 | 1011.2 |
| 20260506203959 | 14 | 0 | 8.0 | 14.5 | 0.00 | 0.76 | 0.76 | 53 | 1011.1 |
| 20260506203449 | 14 | 0 | 9.7 | 14.5 | 0.00 | 0.76 | 0.76 | 53 | 1011.0 |
| 20260506202949 | 14 | 0 | 8.0 | 16.1 | 0.00 | 0.76 | 0.76 | 53 | 1010.9 |
| 20260506202449 | 14 | 0 | 11.3 | 16.1 | 0.00 | 0.76 | 0.76 | 53 | 1010.9 |
| 20260506201949 | 14 | 0 | 8.0 | 20.9 | 0.00 | 0.76 | 0.76 | 54 | 1010.8 |
| 20260506201450 | 15 | 0 | 14.5 | 20.9 | 0.00 | 0.76 | 0.76 | 54 | 1010.7 |
| 20260506200949 | 15 | 0 | 9.7 | 17.7 | 0.00 | 0.76 | 0.76 | 54 | 1010.6 |
| 20260506200451 | 15 | 0 | 9.7 | 19.3 | 0.00 | 0.76 | 0.76 | 54 | 1010.6 |
| 20260506200233 | 15 | 0 | 8.0 | 19.3 | 0.00 | 0.76 | 0.76 | 54 | 1010.4 |
| 20260506195448 | 15 | 0 | 9.7 | 17.7 | 0.00 | 0.76 | 0.76 | 54 | 1010.3 |
| 20260506194959 | 15 | 0 | 9.7 | 16.1 | 0.00 | 0.76 | 0.76 | 55 | 1010.2 |
| 20260506194458 | 15 | 0 | 4.8 | 11.3 | 0.00 | 0.76 | 0.76 | 55 | 1010.1 |
| 20260506194212 | 15 | 0 | 8.0 | 17.7 | 0.00 | 0.76 | 0.76 | 55 | 1010.0 |
| 20260506193448 | 15 | 0 | 11.3 | 17.7 | 0.00 | 0.76 | 0.76 | 55 | 1009.8 |
| 20260506192948 | 15 | 0 | 11.3 | 22.5 | 0.00 | 0.76 | 0.76 | 55 | 1009.6 |
| 20260506192448 | 15 | 0 | 11.3 | 22.5 | 0.00 | 0.76 | 0.76 | 55 | 1009.5 |
| 20260506191959 | 15 | 0 | 11.3 | 24.1 | 0.00 | 0.76 | 0.76 | 55 | 1009.5 |
| 20260506191448 | 15 | 0 | 11.3 | 24.1 | 0.00 | 0.76 | 0.76 | 55 | 1009.5 |
| 20260506190947 | 15 | 0 | 12.9 | 22.5 | 0.00 | 0.76 | 0.76 | 55 | 1009.3 |
| 20260506190447 | 15 | 0 | 14.5 | 22.5 | 0.00 | 0.76 | 0.76 | 55 | 1009.2 |
| 20260506185947 | 15 | 0 | 14.5 | 19.3 | 0.00 | 0.76 | 0.76 | 55 | 1009.1 |
| 20260506185448 | 16 | 0 | 14.5 | 19.3 | 0.00 | 0.76 | 0.76 | 55 | 1009.1 |
| 20260506184947 | 16 | 0 | 12.9 | 19.3 | 0.00 | 0.76 | 0.76 | 55 | 1009.0 |
| 20260506184447 | 16 | 0 | 11.3 | 17.7 | 0.00 | 0.76 | 0.76 | 54 | 1008.8 |
| 20260506183947 | 16 | 0 | 9.7 | 16.1 | 0.00 | 0.76 | 0.76 | 54 | 1008.7 |
| 20260506183706 | 16 | 0 | 8.0 | 17.7 | 0.00 | 0.76 | 0.76 | 53 | 1008.6 |
| 20260506182946 | 16 | 0 | 6.4 | 17.7 | 0.00 | 0.76 | 0.76 | 53 | 1008.4 |
| 20260506182447 | 17 | 0 | 11.3 | 17.7 | 0.00 | 0.76 | 0.76 | 52 | 1008.3 |
| 20260506181947 | 17 | 0 | 8.0 | 19.3 | 0.00 | 0.76 | 0.76 | 51 | 1008.2 |
| 20260506181446 | 17 | 0 | 14.5 | 19.3 | 0.00 | 0.76 | 0.76 | 50 | 1008.0 |
| 20260506180946 | 17 | 0 | 9.7 | 17.7 | 0.00 | 0.76 | 0.76 | 50 | 1007.9 |
| 20260506180446 | 17 | 0 | 12.9 | 20.9 | 0.00 | 0.76 | 0.76 | 49 | 1007.9 |
| 20260506175946 | 17 | 0 | 9.7 | 20.9 | 0.00 | 0.76 | 0.76 | 49 | 1007.8 |
| 20260506175446 | 17 | 0 | 12.9 | 20.9 | 0.00 | 0.76 | 0.76 | 48 | 1007.8 |
| 20260506174945 | 17 | 0 | 14.5 | 20.9 | 0.00 | 0.76 | 0.76 | 48 | 1007.7 |
| 20260506174446 | 18 | 0 | 9.7 | 17.7 | 0.00 | 0.76 | 0.76 | 47 | 1007.6 |
| 20260506173946 | 18 | 0 | 6.4 | 9.7 | 0.00 | 0.76 | 0.76 | 45 | 1007.6 |
| 20260506173446 | 18 | 0 | 6.4 | 9.7 | 0.00 | 0.76 | 0.76 | 44 | 1007.4 |
| 20260506172945 | 18 | 0 | 6.4 | 16.1 | 0.00 | 0.76 | 0.76 | 43 | 1007.3 |
| 20260506172445 | 18 | 0 | 6.4 | 16.1 | 0.00 | 0.76 | 0.76 | 42 | 1007.2 |
| 20260506171945 | 18 | 0 | 9.7 | 16.1 | 0.00 | 0.76 | 0.76 | 41 | 1007.2 |
| 20260506171445 | 18 | 0 | 9.7 | 16.1 | 0.00 | 0.76 | 0.76 | 41 | 1007.0 |
| 20260506171208 | 18 | 0 | 9.7 | 14.5 | 0.00 | 0.76 | 0.76 | 43 | 1006.9 |
| 20260506170444 | 18 | 0 | 6.4 | 14.5 | 0.00 | 0.76 | 0.76 | 42 | 1006.8 |
| 20260506165945 | 18 | 0 | 9.7 | 14.5 | 0.00 | 0.76 | 0.76 | 42 | 1006.8 |
| 20260506165704 | 18 | 0 | 8.0 | 14.5 | 0.00 | 0.76 | 0.76 | 42 | 1006.8 |
| 20260506164944 | 18 | 0 | 8.0 | 16.1 | 0.00 | 0.76 | 0.76 | 42 | 1006.8 |
| 20260506164443 | 18 | 0 | 9.7 | 16.1 | 0.00 | 0.76 | 0.76 | 43 | 1006.9 |
| 20260506163944 | 18 | 0 | 9.7 | 20.9 | 0.00 | 0.76 | 0.76 | 45 | 1006.9 |
| 20260506163444 | 18 | 0 | 9.7 | 20.9 | 0.00 | 0.76 | 0.76 | 46 | 1006.8 |
| 20260506162944 | 18 | 0 | 11.3 | 14.5 | 0.00 | 0.76 | 0.76 | 47 | 1006.8 |
| 20260506162444 | 18 | 0 | 9.7 | 14.5 | 0.00 | 0.76 | 0.76 | 47 | 1006.8 |
| 20260506161943 | 19 | 0 | 6.4 | 17.7 | 0.00 | 0.76 | 0.76 | 47 | 1006.7 |
| 20260506161444 | 19 | 0 | 11.3 | 17.7 | 0.00 | 0.76 | 0.76 | 46 | 1006.6 |
| 20260506160943 | 19 | 0 | 9.7 | 17.7 | 0.00 | 0.76 | 0.76 | 46 | 1006.6 |
| 20260506160443 | 20 | 7 | 9.7 | 19.3 | 0.00 | 0.76 | 0.76 | 46 | 1006.5 |
| 20260506155943 | 20 | 0 | 12.9 | 19.3 | 0.00 | 0.76 | 0.76 | 46 | 1006.6 |
| 20260506155444 | 20 | 0 | 9.7 | 20.9 | 0.00 | 0.76 | 0.76 | 46 | 1006.6 |
| 20260506154943 | 20 | 0 | 11.3 | 20.9 | 0.00 | 0.76 | 0.76 | 45 | 1006.6 |
| 20260506154442 | 20 | 0 | 11.3 | 19.3 | 0.00 | 0.76 | 0.76 | 45 | 1006.6 |
| 20260506153943 | 20 | 0 | 9.7 | 19.3 | 0.00 | 0.76 | 0.76 | 45 | 1006.6 |
| 20260506153443 | 20 | 0 | 8.0 | 20.9 | 0.00 | 0.76 | 0.76 | 45 | 1006.6 |
| 20260506153205 | 20 | 0 | 11.3 | 25.7 | 0.00 | 0.76 | 0.76 | 45 | 1006.6 |
| 20260506152443 | 20 | 0 | 11.3 | 25.7 | 0.00 | 0.76 | 0.76 | 44 | 1006.7 |
| 20260506151941 | 21 | 0 | 16.1 | 20.9 | 0.00 | 0.76 | 0.76 | 44 | 1006.7 |
| 20260506151442 | 21 | 0 | 9.7 | 20.9 | 0.00 | 0.76 | 0.76 | 43 | 1006.7 |
| 20260506150942 | 21 | 0 | 9.7 | 19.3 | 0.00 | 0.76 | 0.76 | 45 | 1006.7 |
| 20260506150442 | 21 | 0 | 9.7 | 24.1 | 0.00 | 0.76 | 0.76 | 44 | 1006.7 |
| 20260506145942 | 21 | 0 | 16.1 | 24.1 | 0.00 | 0.76 | 0.76 | 44 | 1006.7 |
| 20260506145442 | 21 | 0 | 11.3 | 20.9 | 0.00 | 0.76 | 0.76 | 42 | 1006.7 |
| 20260506145205 | 21 | 0 | 9.7 | 17.7 | 0.00 | 0.76 | 0.76 | 41 | 1006.7 |
| 20260506144442 | 21 | 0 | 9.7 | 17.7 | 0.00 | 0.76 | 0.76 | 42 | 1006.7 |
| 20260506144200 | 21 | 0 | 8.0 | 11.3 | 0.00 | 0.76 | 0.76 | 42 | 1006.6 |
| 20260506143708 | 21 | 0 | 8.0 | 17.7 | 0.00 | 0.76 | 0.76 | 41 | 1006.7 |
| 20260506142941 | 22 | 340 | 8.0 | 17.7 | 0.00 | 0.76 | 0.76 | 39 | 1006.7 |
| 20260506142442 | 22 | 45 | 1.6 | 16.1 | 0.00 | 0.76 | 0.76 | 37 | 1006.7 |
| 20260506142205 | 21 | 97 | 8.0 | 16.1 | 0.00 | 0.76 | 0.76 | 37 | 1006.8 |
| 20260506141441 | 22 | 96 | 8.0 | 11.3 | 0.00 | 0.76 | 0.76 | 38 | 1006.8 |
| 20260506140941 | 22 | 86 | 4.8 | 8.0 | 0.00 | 0.76 | 0.76 | 37 | 1006.9 |
| 20260506140440 | 22 | 41 | 3.2 | 8.0 | 0.00 | 0.76 | 0.76 | 38 | 1006.9 |
| 20260506135940 | 21 | 87 | 3.2 | 8.0 | 0.00 | 0.76 | 0.76 | 39 | 1007.0 |
| 20260506135439 | 21 | 182 | 3.2 | 9.7 | 0.00 | 0.76 | 0.76 | 38 | 1007.0 |
| 20260506134938 | 21 | 189 | 4.8 | 9.7 | 0.00 | 0.76 | 0.76 | 40 | 1007.1 |
| 20260506134439 | 21 | 199 | 4.8 | 9.7 | 0.00 | 0.76 | 0.76 | 41 | 1007.1 |
| 20260506133938 | 21 | 0 | 1.6 | 14.5 | 0.00 | 0.76 | 0.76 | 40 | 1007.2 |
| 20260506133439 | 21 | 65 | 9.7 | 14.5 | 0.00 | 0.76 | 0.76 | 42 | 1007.2 |
| 20260506132939 | 21 | 117 | 1.6 | 11.3 | 0.00 | 0.76 | 0.76 | 43 | 1007.2 |
| 20260506132708 | 21 | 87 | 6.4 | 11.3 | 0.00 | 0.76 | 0.76 | 42 | 1007.2 |
| 20260506131939 | 21 | 149 | 3.2 | 9.7 | 0.00 | 0.76 | 0.76 | 42 | 1007.2 |
| 20260506131705 | 20 | 114 | 3.2 | 9.7 | 0.00 | 0.76 | 0.76 | 45 | 1007.4 |
| 20260506130938 | 19 | 255 | 1.6 | 8.0 | 0.00 | 0.76 | 0.76 | 45 | 1007.3 |
| 20260506130438 | 20 | 234 | 3.2 | 8.0 | 0.00 | 0.76 | 0.76 | 43 | 1007.4 |
| 20260506125937 | 20 | 61 | 4.8 | 8.0 | 0.00 | 0.76 | 0.76 | 42 | 1007.3 |
| 20260506125438 | 21 | 0 | 3.2 | 8.0 | 0.00 | 0.76 | 0.76 | 41 | 1007.3 |
| 20260506124937 | 21 | 0 | 4.8 | 6.4 | 0.00 | 0.76 | 0.76 | 44 | 1007.4 |
| 20260506124438 | 20 | 0 | 0.0 | 9.7 | 0.00 | 0.76 | 0.76 | 44 | 1007.4 |
| 20260506124420 | 20 | 0 | 4.8 | 11.3 | 0.00 | 0.76 | 0.76 | 44 | 1007.4 |
| 20260506123438 | 20 | 0 | 6.4 | 11.3 | 0.00 | 0.76 | 0.76 | 46 | 1007.4 |
| 20260506122937 | 20 | 0 | 6.4 | 11.3 | 0.00 | 0.76 | 0.76 | 45 | 1007.3 |
| 20260506122437 | 20 | 0 | 3.2 | 14.5 | 0.00 | 0.76 | 0.76 | 45 | 1007.4 |
| 20260506121937 | 19 | 0 | 4.8 | 14.5 | 0.00 | 0.76 | 0.76 | 46 | 1007.3 |
| 20260506121436 | 20 | 0 | 6.4 | 11.3 | 0.00 | 0.76 | 0.76 | 46 | 1007.3 |
| 20260506121417 | 19 | 0 | 3.2 | 9.7 | 0.00 | 0.76 | 0.76 | 47 | 1007.4 |
| 20260506120437 | 20 | 0 | 4.8 | 11.3 | 0.00 | 0.76 | 0.76 | 46 | 1007.3 |
| 20260506115936 | 19 | 0 | 6.4 | 14.5 | 0.00 | 0.76 | 0.76 | 48 | 1007.6 |
| 20260506115437 | 19 | 0 | 4.8 | 14.5 | 0.00 | 0.76 | 0.76 | 47 | 1007.6 |
| 20260506115430 | 19 | 0 | 6.4 | 11.3 | 0.00 | 0.76 | 0.76 | 48 | 1007.4 |
| 20260506114436 | 18 | 0 | 4.8 | 9.7 | 0.00 | 0.76 | 0.76 | 47 | 1007.4 |
| 20260506113937 | 19 | 0 | 4.8 | 9.7 | 0.00 | 0.76 | 0.76 | 47 | 1007.6 |
| 20260506113436 | 19 | 0 | 3.2 | 8.0 | 0.00 | 0.76 | 0.76 | 48 | 1007.6 |
| 20260506112936 | 18 | 0 | 3.2 | 14.5 | 0.00 | 0.76 | 0.76 | 47 | 1007.6 |
| 20260506112700 | 18 | 0 | 6.4 | 14.5 | 0.00 | 0.76 | 0.76 | 48 | 1007.6 |
| 20260506111935 | 18 | 0 | 6.4 | 11.3 | 0.00 | 0.76 | 0.76 | 48 | 1007.7 |
| 20260506111435 | 18 | 0 | 9.7 | 11.3 | 0.00 | 0.76 | 0.76 | 50 | 1007.7 |
| 20260506110936 | 18 | 0 | 3.2 | 6.4 | 0.00 | 0.76 | 0.76 | 51 | 1007.7 |
| 20260506110435 | 18 | 0 | 3.2 | 8.0 | 0.00 | 0.76 | 0.76 | 49 | 1007.8 |
| 20260506110421 | 18 | 0 | 3.2 | 9.7 | 0.00 | 0.76 | 0.76 | 50 | 1007.8 |
| 20260506105701 | 18 | 0 | 4.8 | 9.7 | 0.00 | 0.76 | 0.76 | 50 | 1008.0 |
| 20260506104935 | 17 | 0 | 4.8 | 8.0 | 0.00 | 0.76 | 0.76 | 50 | 1008.0 |
| 20260506104435 | 17 | 0 | 4.8 | 8.0 | 0.00 | 0.76 | 0.76 | 49 | 1008.0 |
| 20260506103935 | 17 | 0 | 3.2 | 6.4 | 0.00 | 0.76 | 0.76 | 50 | 1008.0 |
| 20260506103434 | 17 | 0 | 1.6 | 9.7 | 0.00 | 0.76 | 0.76 | 51 | 1008.1 |
| 20260506102935 | 17 | 0 | 3.2 | 9.7 | 0.00 | 0.76 | 0.76 | 50 | 1008.1 |
| 20260506102434 | 17 | 0 | 6.4 | 9.7 | 0.00 | 0.76 | 0.76 | 50 | 1008.0 |
| 20260506102146 | 17 | 0 | 4.8 | 9.7 | 0.00 | 0.76 | 0.76 | 52 | 1008.1 |
| 20260506102132 | 17 | 0 | 1.6 | 9.7 | 0.00 | 0.76 | 0.76 | 50 | 1008.1 |
| 20260506101153 | 16 | 0 | 3.2 | 9.7 | 0.00 | 0.76 | 0.76 | 51 | 1008.2 |
| 20260506100434 | 16 | 0 | 6.4 | 11.3 | 0.00 | 0.76 | 0.76 | 51 | 1008.2 |
| 20260506095934 | 16 | 0 | 8.0 | 11.3 | 0.00 | 0.76 | 0.76 | 52 | 1008.2 |
| 20260506095433 | 16 | 0 | 3.2 | 11.3 | 0.00 | 0.76 | 0.76 | 51 | 1008.2 |
| 20260506094933 | 16 | 0 | 6.4 | 11.3 | 0.00 | 0.76 | 0.76 | 51 | 1008.2 |
| 20260506094433 | 16 | 0 | 6.4 | 11.3 | 0.00 | 0.79 | 0.76 | 53 | 1008.2 |
| 20260506093933 | 16 | 0 | 6.4 | 11.3 | 0.00 | 0.79 | 0.76 | 53 | 1008.3 |
| 20260506093434 | 16 | 0 | 6.4 | 9.7 | 0.00 | 0.79 | 0.76 | 52 | 1008.4 |
| 20260506092933 | 15 | 0 | 6.4 | 14.5 | 0.00 | 0.79 | 0.76 | 52 | 1008.4 |
| 20260506092434 | 15 | 0 | 6.4 | 14.5 | 0.00 | 0.79 | 0.76 | 53 | 1008.4 |
| 20260506091933 | 15 | 0 | 8.0 | 14.5 | 0.00 | 0.79 | 0.76 | 52 | 1008.5 |
| 20260506091652 | 15 | 0 | 6.4 | 11.3 | 0.00 | 0.79 | 0.76 | 54 | 1008.5 |
| 20260506090934 | 15 | 0 | 6.4 | 17.7 | 0.00 | 0.79 | 0.76 | 55 | 1008.6 |
| 20260506090434 | 14 | 0 | 9.7 | 17.7 | 0.00 | 0.81 | 0.76 | 58 | 1008.7 |
| 20260506090151 | 14 | 0 | 9.7 | 16.1 | 0.00 | 0.81 | 0.76 | 63 | 1008.6 |
| 20260506085434 | 13 | 0 | 9.7 | 16.1 | 0.00 | 0.84 | 0.76 | 66 | 1008.6 |
| 20260506084934 | 13 | 0 | 6.4 | 9.7 | 0.00 | 0.84 | 0.76 | 68 | 1008.6 |
| 20260506084434 | 13 | 0 | 6.4 | 9.7 | 0.00 | 0.84 | 0.76 | 67 | 1008.6 |
| 20260506083934 | 13 | 0 | 6.4 | 9.7 | 0.00 | 0.84 | 0.76 | 68 | 1008.7 |
| 20260506083433 | 12 | 0 | 6.4 | 9.7 | 0.00 | 0.86 | 0.76 | 68 | 1008.7 |
| 20260506082933 | 12 | 0 | 6.4 | 9.7 | 0.00 | 0.86 | 0.76 | 67 | 1008.7 |
| 20260506082433 | 12 | 0 | 6.4 | 9.7 | 0.00 | 0.86 | 0.76 | 68 | 1008.8 |
| 20260506082155 | 12 | 0 | 6.4 | 9.7 | 0.00 | 0.89 | 0.76 | 68 | 1008.7 |
| 20260506081433 | 12 | 0 | 1.6 | 6.4 | 0.00 | 0.89 | 0.76 | 68 | 1008.7 |
| 20260506080933 | 12 | 0 | 3.2 | 4.8 | 0.00 | 0.89 | 0.76 | 68 | 1008.8 |
| 20260506080433 | 12 | 0 | 3.2 | 4.8 | 0.00 | 0.89 | 0.76 | 68 | 1008.8 |
| 20260506080158 | 12 | 0 | 1.6 | 3.2 | 0.00 | 0.89 | 0.76 | 68 | 1008.7 |
| 20260506073432 | 12 | 0 | 0.0 | 4.8 | 0.00 | 0.89 | 0.76 | 68 | 1008.7 |
| 20260506072932 | 12 | 0 | 0.0 | 4.8 | 0.00 | 0.89 | 0.76 | 68 | 1008.7 |
| 20260506072432 | 12 | 0 | 1.6 | 4.8 | 0.00 | 0.89 | 0.76 | 68 | 1008.7 |
| 20260506071932 | 12 | 0 | 1.6 | 3.2 | 0.00 | 0.89 | 0.76 | 68 | 1008.6 |
| 20260506071433 | 12 | 0 | 1.6 | 1.6 | 0.00 | 0.89 | 0.76 | 68 | 1008.7 |
| 20260506070932 | 12 | 0 | 0.0 | 0.0 | 0.00 | 0.89 | 0.76 | 68 | 1008.7 |
| 20260506070432 | 12 | 0 | 0.0 | 0.0 | 0.00 | 0.89 | 0.76 | 68 | 1008.7 |
| 20260506062430 | 12 | 0 | 0.0 | 0.0 | 0.08 | 0.89 | 0.76 | 68 | 1009.1 |
| 20260506061931 | 12 | 0 | 0.0 | 0.0 | 0.15 | 0.89 | 0.76 | 68 | 1009.0 |
| 20260506061430 | 12 | 0 | 0.0 | 0.0 | 0.25 | 0.89 | 0.76 | 68 | 1009.1 |
| 20260506060930 | 12 | 0 | 0.0 | 3.2 | 0.38 | 0.89 | 0.76 | 68 | 1009.1 |
| 20260506060430 | 12 | 0 | 0.0 | 3.2 | 0.46 | 0.89 | 0.76 | 67 | 1009.1 |